Location: Unspecified
(0.0000°N, 0.0000°E)
Time: 18:02:41
(UTC+00:00)

Envisat - Pass Details

Date: 05 May 2021
Orbit: 764 x 766 km, 98.1° (Epoch: 14 May)

Event Time Altitude Azimuth Distance (km) Brightness Sun altitude
Rises 04:29:06 0° 31° (NNE) 3,214 7.0 -21.0°
Reaches altitude 10° 04:31:37 10° 41° (NE) 2,291 6.3 -20.4°
Maximum altitude 04:36:03 31° 102° (ESE) 1,318 4.8 -19.3°
Drops below altitude 10° 04:40:29 10° 163° (SSE) 2,300 5.5 -18.3°
Sets 04:43:00 0° 173° (S) 3,229 6.1 -17.7°
